CW1852 Weather Reports


Display with metric or nautical units.
time (UTC)temp
F
wind
direction
speed
MPH
gust
MPH
rain 1hr
in
rain 24hr
in
rain mn
in
humidity
%
barometer
mb
20260905064203 62 320 1.0 4.0 0.00 0.23 0.00 94 1005.8
20260905063202 62 320 1.0 6.0 0.00 0.23 0.00 93 1005.8
20260905062203 62 320 0.0 6.0 0.00 0.23 0.00 94 1005.8
20260905060203 62 321 2.0 5.0 0.00 0.23 0.00 94 1005.8
20260905055202 63 322 1.0 4.0 0.00 0.23 0.00 94 1005.9
20260905054224 62 323 1.0 6.0 0.00 0.23 0.00 95 1005.9
20260905053203 62 327 1.0 6.0 0.00 0.23 0.00 96 1005.9
20260905052202 62 316 2.0 5.0 0.00 0.23 0.00 96 1006.0
20260905051203 62 315 1.0 3.0 0.00 0.23 0.00 96 1006.1
20260905050203 62 315 0.0 5.0 0.00 0.23 0.00 96 1005.9
20260905045203 62 315 1.0 3.0 0.00 0.23 0.00 96 1006.0
20260905044203 62 315 1.0 3.0 0.00 0.23 0.00 96 1006.0
20260905043203 62 315 1.0 6.0 0.00 0.23 0.00 96 1006.2
20260905042202 62 315 1.0 4.0 0.00 0.23 0.00 96 1006.1
20260905041224 62 315 2.0 4.0 0.00 0.23 0.00 96 1006.0
20260905040223 62 315 1.0 3.0 0.00 0.23 0.00 96 1006.0
20260905035203 62 315 1.0 3.0 0.00 0.23 0.23 96 1006.1
20260905034203 63 315 1.0 5.0 0.00 0.23 0.23 96 1005.9
20260905033203 63 315 2.0 5.0 0.00 0.23 0.23 96 1006.0
20260905032203 62 314 1.0 3.0 0.00 0.23 0.23 96 1006.1
20260905031202 62 314 0.0 2.0 0.00 0.23 0.23 96 1006.0
20260905030203 63 314 0.0 1.0 0.00 0.23 0.23 96 1006.0
20260905025224 63 314 0.0 1.0 0.00 0.23 0.23 96 1005.9
20260905024203 63 314 0.0 3.0 0.00 0.23 0.23 96 1005.9
20260905023203 64 315 0.0 1.0 0.00 0.23 0.23 96 1006.1
20260905022245 64 314 0.0 2.0 0.00 0.23 0.23 96 1006.1
20260905021203 65 315 0.0 0.0 0.00 0.23 0.23 96 1006.1
20260905020203 65 314 0.0 3.0 0.00 0.23 0.23 96 1006.1
20260905015203 65 315 0.0 3.0 0.00 0.23 0.23 96 1006.1
20260905014203 65 315 0.0 3.0 0.00 0.23 0.23 96 1006.2
20260905013224 65 316 0.0 0.0 0.00 0.23 0.23 96 1006.3
20260905012203 65 316 0.0 0.0 0.00 0.23 0.23 96 1006.4
20260905011202 65 316 0.0 0.0 0.00 0.23 0.23 96 1006.3
20260905010203 65 316 0.0 0.0 0.00 0.23 0.23 96 1006.4
20260905005203 65 316 0.0 2.0 0.00 0.23 0.23 96 1006.4
20260905004223 65 315 1.0 2.0 0.00 0.23 0.23 96 1006.4
20260905003203 66 315 1.0 2.0 0.00 0.23 0.23 96 1006.3
20260905002202 66 316 0.0 1.0 0.00 0.23 0.23 96 1006.3
20260905001203 65 315 0.0 1.0 0.00 0.23 0.23 96 1006.1
20260905000204 65 315 0.0 1.0 0.00 0.23 0.23 95 1006.1
20260904235224 65 316 0.0 2.0 0.00 0.23 0.23 96 1006.1
20260904234203 65 315 1.0 3.0 0.00 0.23 0.23 95 1006.0
20260904233224 66 315 1.0 3.0 0.00 0.23 0.23 96 1006.0
20260904232203 66 316 0.0 0.0 0.00 0.23 0.23 95 1005.9
20260904231203 66 316 0.0 0.0 0.00 0.23 0.23 95 1005.8
20260904230202 66 316 0.0 0.0 0.00 0.23 0.23 95 1005.9
20260904225203 66 316 0.0 1.0 0.00 0.23 0.23 96 1005.9
20260904224203 67 315 0.0 3.0 0.00 0.23 0.23 95 1006.0
20260904223202 68 315 1.0 2.0 0.00 0.23 0.23 96 1006.0
20260904222203 68 316 0.0 2.0 0.00 0.23 0.23 95 1005.9
20260904221203 68 315 0.0 1.0 0.00 0.23 0.23 95 1005.8
20260904220203 68 316 0.0 1.0 0.00 0.23 0.23 95 1005.7
20260904215203 69 315 0.0 2.0 0.00 0.23 0.23 95 1005.8
20260904214203 69 315 0.0 2.0 0.00 0.23 0.23 95 1005.8
20260904213203 68 316 1.0 3.0 0.00 0.23 0.23 95 1005.9
20260904212203 68 316 1.0 2.0 0.00 0.23 0.23 95 1005.9
20260904211203 67 316 0.0 3.0 0.00 0.23 0.23 94 1005.9
20260904210203 68 293 0.0 3.0 0.00 0.23 0.23 94 1005.8
20260904205203 68 286 0.0 3.0 0.23 0.23 0.23 94 1006.0
20260904204225 69 286 0.0 3.0 0.13 0.13 0.13 90 1006.2
20260904203202 70 322 2.0 5.0 0.00 0.00 0.00 83 1006.0
20260904202203 71 282 1.0 8.0 0.00 0.00 0.00 81 1005.5
20260904201224 72 233 2.0 5.0 0.00 0.00 0.00 80 1005.4
20260904200202 74 182 2.0 7.0 0.00 0.00 0.00 77 1005.5
20260904195203 73 183 3.0 8.0 0.00 0.00 0.00 77 1005.4
20260904194202 74 259 3.0 9.0 0.00 0.00 0.00 76 1005.7
20260904193203 75 192 3.0 8.0 0.00 0.00 0.00 75 1005.8
20260904192203 73 261 4.0 10.0 0.00 0.00 0.00 80 1005.8
20260904191224 72 273 2.0 5.0 0.00 0.00 0.00 81 1005.8
20260904190203 72 276 1.0 3.0 0.00 0.00 0.00 81 1005.9
20260904185203 72 244 2.0 8.0 0.00 0.00 0.00 79 1006.0
20260904184224 74 197 2.0 5.0 0.00 0.00 0.00 77 1006.0
20260904183202 76 243 3.0 7.0 0.00 0.00 0.00 74 1006.1
20260904182224 74 180 2.0 7.0 0.00 0.00 0.00 79 1006.1
20260904181203 73 263 5.0 7.0 0.00 0.00 0.00 78 1006.0
20260904180203 73 274 1.0 7.0 0.00 0.00 0.00 80 1006.0
20260904175203 73 252 3.0 8.0 0.00 0.00 0.00 78 1006.3
20260904174203 76 238 2.0 9.0 0.00 0.00 0.00 73 1006.4
20260904173202 78 197 2.0 8.0 0.00 0.00 0.00 73 1006.4
20260904172203 79 257 3.0 8.0 0.00 0.00 0.00 72 1006.5
20260904171224 78 182 3.0 6.0 0.00 0.00 0.00 72 1006.5
20260904170223 76 181 1.0 3.0 0.00 0.00 0.00 76 1006.7
20260904165203 75 182 1.0 6.0 0.00 0.00 0.00 77 1006.7
20260904164224 74 178 3.0 7.0 0.00 0.00 0.00 79 1006.9
20260904163203 75 182 1.0 3.0 0.00 0.00 0.00 79 1007.0
20260904162202 73 182 1.0 4.0 0.00 0.00 0.00 81 1007.0
20260904161203 73 182 1.0 2.0 0.00 0.00 0.00 83 1007.2
20260904160202 72 181 1.0 6.0 0.00 0.00 0.00 82 1007.3
20260904155224 72 334 1.0 3.0 0.00 0.01 0.00 84 1007.3
20260904154202 72 339 0.0 3.0 0.00 0.01 0.00 85 1007.4
20260904153203 71 335 0.0 2.0 0.00 0.01 0.00 87 1007.7
20260904152203 70 335 0.0 2.0 0.00 0.01 0.00 87 1007.7
20260904150203 69 344 0.0 2.0 0.00 0.01 0.00 92 1007.9
20260904145202 68 344 1.0 4.0 0.00 0.01 0.00 92 1007.9
20260904144203 67 334 1.0 5.0 0.00 0.01 0.00 93 1008.0
20260904143202 67 339 3.0 5.0 0.00 0.01 0.00 95 1008.0
20260904142203 66 56 2.0 4.0 0.00 0.01 0.00 96 1008.0
20260904141202 65 19 2.0 5.0 0.00 0.01 0.00 97 1008.0
20260904140224 65 324 1.0 2.0 0.00 0.01 0.00 97 1008.1
20260904135203 65 322 2.0 5.0 0.00 0.02 0.00 97 1008.1
20260904134203 65 322 0.0 3.0 0.00 0.02 0.00 97 1008.1
20260904133203 64 320 0.0 5.0 0.00 0.02 0.00 97 1008.2
20260904131204 64 320 1.0 3.0 0.00 0.04 0.00 97 1008.1
20260904130202 64 317 1.0 5.0 0.00 0.04 0.00 98 1008.1
20260904125203 63 308 1.0 8.0 0.00 0.04 0.00 97 1008.1
20260904124224 63 56 0.0 4.0 0.00 0.04 0.00 97 1008.1
20260904123223 63 57 1.0 4.0 0.00 0.04 0.00 97 1008.2
20260904122224 63 57 1.0 4.0 0.00 0.04 0.00 98 1008.2
20260904121203 63 57 1.0 4.0 0.00 0.04 0.00 98 1008.2
20260904115202 63 63 1.0 4.0 0.00 0.05 0.00 98 1008.2
20260904114224 63 63 2.0 5.0 0.00 0.05 0.00 98 1008.2
20260904113202 63 71 2.0 3.0 0.00 0.05 0.00 98 1008.2
20260904112203 63 72 1.0 3.0 0.00 0.06 0.00 97 1008.1
20260904111203 62 72 0.0 2.0 0.00 0.07 0.00 98 1008.1
20260904110202 62 72 0.0 2.0 0.00 0.09 0.00 97 1008.0
20260904105203 62 72 1.0 3.0 0.00 0.09 0.00 97 1007.9
20260904104202 62 72 1.0 4.0 0.00 0.09 0.00 97 1007.8
20260904103203 62 72 1.0 3.0 0.00 0.09 0.00 98 1007.8
20260904102203 61 72 1.0 3.0 0.00 0.09 0.00 97 1007.8
20260904101203 61 72 0.0 1.0 0.00 0.09 0.00 97 1007.8
20260904100203 61 72 0.0 2.0 0.00 0.09 0.00 97 1007.8
20260904095224 61 72 0.0 1.0 0.00 0.09 0.00 97 1007.8
20260904094202 61 72 0.0 0.0 0.00 0.09 0.00 98 1007.9
20260904093203 61 72 0.0 1.0 0.00 0.09 0.00 97 1007.7
20260904092202 60 72 0.0 1.0 0.00 0.09 0.00 97 1007.6
20260904091203 60 72 0.0 2.0 0.00 0.09 0.00 97 1007.7
20260904090202 60 71 1.0 2.0 0.00 0.09 0.00 97 1007.7
20260904085203 60 71 0.0 2.0 0.00 0.09 0.00 97 1007.6
20260904084203 60 71 1.0 2.0 0.00 0.09 0.00 97 1007.7
20260904083202 60 71 0.0 1.0 0.00 0.09 0.00 97 1007.8
20260904082224 60 72 0.0 1.0 0.00 0.09 0.00 97 1007.8
20260904081203 60 71 0.0 1.0 0.00 0.09 0.00 97 1007.6
20260904080203 60 71 0.0 0.0 0.00 0.09 0.00 97 1007.7
20260904075203 60 71 0.0 0.0 0.00 0.09 0.00 97 1007.7
20260904074245 60 71 0.0 0.0 0.00 0.09 0.00 97 1007.8
20260904073203 60 71 0.0 0.0 0.00 0.09 0.00 97 1007.9
20260904072203 60 71 0.0 0.0 0.00 0.09 0.00 97 1008.0
20260904071203 60 72 0.0 0.0 0.00 0.09 0.00 97 1008.2
20260904070202 60 71 0.0 0.0 0.00 0.09 0.00 97 1008.3
20260904065203 60 71 0.0 0.0 0.00 0.09 0.00 97 1008.4